Date String (YYYY-MM-DD hh:mm:ss) UTC,Instrument flags,absolute air pressure of the measurement (hPa),sample flow rate (lpm),inlet stack bypass flow (lpm),air temperature of the measurement (°C),ambient temperature measured by the external sensor (°C),aerosol sample conditioner tube jacket temperature (°C),OPC LED temperature (°C),internal box temperature (°C),relative humidity of the measurement (%),span deviation,mass concentration of particles derived from Lorenz-Mie calculation of OPC scattering (μg/m³),mass concentration of particles derived from Lorenz-Mie calculation of OPC scattering (μg/m³),mass concentration of particles derived from Lorenz-Mie calculation of OPC scattering (μg/m³)
DateTimeUTC,F1_M11,P_M11,Q1_M11,Q2_M11,T1_M11,T2_M11,T3_M11,T4_M11,T5_M11,U1_M11,ZSPAN_M11,X0_M11,X2_M11,X1_M11
2023-09-17 14:00:00,SystemResetWarning,0835.5,5.00,000.00,028.3,026.8,000.0,036.6,029.9,17.0,0000.0,0005.16,0003.24,0002.88
2023-09-17 14:01:00,SystemResetWarning,0835.5,5.00,000.00,028.3,026.8,000.0,036.6,029.9,17.4,0000.0,0005.07,0003.23,0002.90
2023-09-17 14:02:00,SystemResetWarning,0835.5,4.99,000.00,028.3,026.8,000.0,036.6,029.9,17.1,0000.0,0004.86,0003.22,0002.91
2023-09-17 14:03:00,SystemResetWarning,0835.5,5.00,000.00,028.3,026.8,000.0,036.6,029.9,17.0,0000.0,0004.86,0003.23,0002.90
2023-09-17 14:04:00,SystemResetWarning,0835.6,5.00,000.00,028.3,026.8,000.0,036.6,029.9,17.3,0000.0,0004.90,0003.23,0002.89
2023-09-17 14:05:00,SystemResetWarning,0835.5,5.00,000.00,028.3,026.8,000.0,036.6,030.0,17.3,0000.0,0004.91,0003.23,0002.87
2023-09-17 14:06:00,SystemResetWarning,0835.5,5.00,000.00,028.3,026.9,000.0,036.6,030.0,17.1,0000.0,0005.15,0003.23,0002.86
2023-09-17 14:07:00,SystemResetWarning,0835.5,5.00,000.00,028.3,026.9,000.0,036.6,030.0,16.9,0000.0,0006.08,0003.23,0002.83
2023-09-17 14:08:00,SystemResetWarning,0835.5,5.00,000.00,028.3,026.9,000.0,036.6,030.0,17.1,0000.0,0006.13,0003.23,0002.83
2023-09-17 14:09:00,SystemResetWarning,0835.5,5.00,000.00,028.3,026.9,000.0,036.6,030.0,16.8,0000.0,0006.18,0003.25,0002.83
2023-09-17 14:10:00,SystemResetWarning,0835.5,5.00,000.00,028.4,026.9,000.0,036.6,030.0,17.2,0000.0,0006.23,0003.28,0002.83
2023-09-17 14:11:00,SystemResetWarning,0835.5,5.01,000.00,028.4,026.9,000.0,036.6,030.0,17.2,0000.0,0005.80,0003.27,0002.82
2023-09-17 14:12:00,SystemResetWarning,0835.5,5.00,000.00,028.4,026.9,000.0,036.7,030.0,17.2,0000.0,0005.97,0003.31,0002.81
2023-09-17 14:13:00,SystemResetWarning,0835.5,5.00,000.00,028.4,026.9,000.0,036.7,030.0,17.6,0000.0,0006.11,0003.33,0002.80
2023-09-17 14:14:00,SystemResetWarning,0835.5,5.00,000.00,028.4,026.9,000.0,036.7,030.0,17.1,0000.0,0006.03,0003.31,0002.81
2023-09-17 14:15:00,SystemResetWarning,0835.5,5.00,000.00,028.4,026.9,000.0,036.7,030.0,17.1,0000.0,0005.96,0003.31,0002.82
2023-09-17 14:16:00,SystemResetWarning,0835.5,4.99,000.00,028.4,026.9,000.0,036.7,030.0,17.0,0000.0,0006.08,0003.31,0002.81
2023-09-17 14:17:00,SystemResetWarning,0835.5,4.99,000.00,028.4,026.9,000.0,036.7,030.0,17.1,0000.0,0006.13,0003.30,0002.80
2023-09-17 14:18:00,SystemResetWarning,0835.5,5.02,000.00,028.4,026.9,000.0,036.7,030.0,17.1,0000.0,0005.10,0003.27,0002.79
2023-09-17 14:19:00,SystemResetWarning,0835.5,5.00,000.00,028.4,027.0,000.0,036.7,030.1,17.6,0000.0,0004.97,0003.25,0002.78
2023-09-17 14:20:00,SystemResetWarning,0835.5,4.99,000.00,028.4,027.0,000.0,036.7,030.1,17.6,0000.0,0004.90,0003.24,0002.77
2023-09-17 14:21:00,SystemResetWarning,0835.5,4.99,000.00,028.4,027.0,000.0,036.7,030.1,17.5,0000.0,0005.06,0003.22,0002.76
2023-09-17 14:22:00,SystemResetWarning,0835.6,5.00,000.00,028.4,027.0,000.0,036.7,030.1,17.1,0000.0,0005.26,0003.23,0002.74
2023-09-17 14:23:00,SystemResetWarning,0835.5,5.01,000.00,028.4,027.0,000.0,036.7,030.1,17.2,0000.0,0005.53,0003.22,0002.74
2023-09-17 14:24:00,SystemResetWarning,0835.5,5.00,000.00,028.5,027.0,000.0,036.7,030.1,16.7,0000.0,0006.23,0003.22,0002.75
2023-09-17 14:25:00,SystemResetWarning,0835.5,5.00,000.00,028.5,027.0,000.0,036.7,030.1,16.9,0000.0,0006.31,0003.24,0002.75
2023-09-17 14:26:00,SystemResetWarning,0835.5,5.00,000.00,028.5,027.0,000.0,036.7,030.1,17.4,0000.0,0006.25,0003.21,0002.73
2023-09-17 14:27:00,SystemResetWarning,0835.5,5.00,000.00,028.5,027.0,000.0,036.8,030.1,17.3,0000.0,0006.11,0003.19,0002.73
2023-09-17 14:28:00,SystemResetWarning,0835.5,5.00,000.00,028.5,027.0,000.0,036.8,030.1,17.5,0000.0,0006.07,0003.21,0002.73
2023-09-17 14:29:00,SystemResetWarning,0835.5,5.00,000.00,028.5,027.0,000.0,036.8,030.1,17.5,0000.0,0006.09,0003.24,0002.73
2023-09-17 14:30:00,SystemResetWarning,0835.5,5.00,000.00,028.5,027.0,000.0,036.8,030.1,17.3,0000.0,0006.21,0003.28,0002.75
2023-09-17 14:31:00,SystemResetWarning,0835.5,5.00,000.00,028.5,027.0,000.0,036.8,030.1,17.5,0000.0,0006.20,0003.28,0002.76
2023-09-17 14:32:00,SystemResetWarning,0835.5,5.00,000.00,028.5,027.0,000.0,036.8,030.1,17.8,0000.0,0006.03,0003.30,0002.79
2023-09-17 14:33:00,SystemResetWarning,0835.5,5.00,000.00,028.5,027.0,000.0,036.8,030.2,17.8,0000.0,0005.87,0003.31,0002.82
2023-09-17 14:34:00,SystemResetWarning,0835.5,5.00,000.00,028.5,027.1,000.0,036.8,030.2,17.5,0000.0,0005.53,0003.30,0002.85
2023-09-17 14:35:00,SystemResetWarning,0835.5,5.00,000.00,028.5,027.1,000.0,036.8,030.2,18.0,0000.0,0004.91,0003.31,0002.87
2023-09-17 14:36:00,SystemResetWarning,0835.5,5.00,000.00,028.5,027.1,000.0,036.8,030.2,18.2,0000.0,0005.17,0003.35,0002.91
2023-09-17 14:37:00,SystemResetWarning,0835.5,4.99,000.00,028.6,027.1,000.0,036.8,030.2,18.3,0000.0,0005.49,0003.40,0002.97
2023-09-17 14:38:00,SystemResetWarning,0835.5,5.01,000.00,028.6,027.1,000.0,036.8,030.2,17.2,0000.0,0005.66,0003.45,0003.02
2023-09-17 14:39:00,SystemResetWarning,0835.5,5.00,000.00,028.6,027.1,000.0,036.8,030.2,17.4,0000.0,0005.50,0003.45,0003.07
2023-09-17 14:40:00,SystemResetWarning,0835.5,5.01,000.00,028.6,027.1,000.0,036.8,030.2,17.1,0000.0,0005.64,0003.45,0003.10
2023-09-17 14:41:00,SystemResetWarning,0835.5,5.00,000.00,028.6,027.2,000.0,036.9,030.2,16.6,0000.0,0005.87,0003.47,0003.10
2023-09-17 14:42:00,SystemResetWarning,0835.5,5.01,000.00,028.6,027.2,000.0,036.9,030.3,17.0,0000.0,0005.88,0003.47,0003.11
2023-09-17 14:43:00,SystemResetWarning,0835.5,5.00,000.00,028.6,027.2,000.0,036.9,030.2,17.7,0000.0,0005.81,0003.45,0003.11
2023-09-17 14:44:00,SystemResetWarning,0835.5,4.99,000.00,028.6,027.2,000.0,036.9,030.3,17.6,0000.0,0005.77,0003.44,0003.10
2023-09-17 14:45:00,SystemResetWarning,0835.5,4.99,000.00,028.6,027.2,000.0,036.9,030.3,17.3,0000.0,0005.70,0003.44,0003.09
2023-09-17 14:46:00,SystemResetWarning,0835.5,5.00,000.00,028.6,027.2,000.0,036.9,030.3,17.5,0000.0,0005.57,0003.43,0003.09
2023-09-17 14:47:00,SystemResetWarning,0835.5,5.00,000.00,028.7,027.3,000.0,036.9,030.3,18.2,0000.0,0005.49,0003.43,0003.09
2023-09-17 14:48:00,SystemResetWarning,0835.5,5.01,000.00,028.7,027.3,000.0,036.9,030.3,18.3,0000.0,0005.44,0003.44,0003.10
2023-09-17 14:49:00,SystemResetWarning,0835.5,5.01,000.00,028.7,027.3,000.0,036.9,030.4,18.3,0000.0,0005.50,0003.45,0003.11
2023-09-17 14:50:00,SystemResetWarning,0835.5,5.01,000.00,028.7,027.4,000.0,036.9,030.4,18.3,0000.0,0005.64,0003.47,0003.13
2023-09-17 14:51:00,SystemResetWarning,0835.6,5.00,000.00,028.7,027.4,000.0,036.9,030.4,18.0,0000.0,0005.54,0003.49,0003.15
2023-09-17 14:52:00,SystemResetWarning,0835.5,5.00,000.00,028.7,027.4,000.0,037.0,030.4,18.2,0000.0,0005.36,0003.49,0003.18
2023-09-17 14:53:00,SystemResetWarning,0835.5,5.00,000.00,028.7,027.4,000.0,037.0,030.4,18.1,0000.0,0005.34,0003.51,0003.21
2023-09-17 14:54:00,SystemResetWarning,0835.5,4.99,000.00,028.8,027.4,000.0,037.0,030.4,17.8,0000.0,0005.42,0003.55,0003.23
2023-09-17 14:55:00,SystemResetWarning,0835.5,5.00,000.00,028.8,027.4,000.0,037.0,030.4,18.0,0000.0,0005.45,0003.58,0003.27
2023-09-17 14:56:00,SystemResetWarning,0835.5,5.00,000.00,028.8,027.5,000.0,037.0,030.5,18.4,0000.0,0005.52,0003.60,0003.30
2023-09-17 14:57:00,SystemResetWarning,0835.6,5.00,000.00,028.8,027.5,000.0,037.0,030.5,18.5,0000.0,0005.69,0003.62,0003.30
2023-09-17 14:58:00,SystemResetWarning,0835.6,5.01,000.00,028.8,027.5,000.0,037.0,030.5,19.3,0000.0,0005.66,0003.63,0003.32
2023-09-17 14:59:00,SystemResetWarning,0835.7,5.01,000.00,028.8,027.5,000.0,037.0,030.5,19.4,0000.0,0005.53,0003.63,0003.33
